{"data":{"norad_id":55986,"epoch":"2026-05-24T23:29:14.699040Z","epoch_age_seconds":76656,"freshness":"FRESH","line1":"1 55986U 23042A   26144.97864235  .00001502  00000+0  64107-4 0  9994","line2":"2 55986  43.0021 349.0331 0001525 257.6832 102.3849 15.27577141175352","mean_motion":15.27577141,"eccentricity":0.0001525,"inclination_deg":43.0021,"raan_deg":349.0331,"arg_perigee_deg":257.6832,"mean_anomaly_deg":102.3849,"bstar":6.4107e-5,"rev_number":17535,"period_min":94.266925142473,"perigee_km":482.01132474234,"apogee_km":484.1039891127,"semimajor_km":6861.1946569275,"source":"CELESTRAK","updated_at":"2026-05-25T13:38:17.921592Z"}}